TimePDT,TemperatureF,Dew PointF,Humidity,Sea Level PressureIn,VisibilityMPH,Wind Direction,Wind SpeedMPH,Gust SpeedMPH,PrecipitationIn,Events,Conditions,WindDirDegrees,DateUTC
12:58 AM,57.4,22.8,26,30.04,10.0,ENE,2.3,-,N/A,,Clear,60,2013-09-28 07:58:00
1:58 AM,59.2,24.8,27,30.06,10.0,South,1.2,-,N/A,,Clear,170,2013-09-28 08:58:00
2:58 AM,60.6,24.3,25,30.04,10.0,ESE,4.6,-,N/A,,Clear,120,2013-09-28 09:58:00
3:58 AM,58.1,26.4,30,30.05,10.0,NW,4.6,-,N/A,,Clear,310,2013-09-28 10:58:00
4:58 AM,56.3,24.6,29,30.06,10.0,North,3.5,-,N/A,,Clear,350,2013-09-28 11:58:00
5:58 AM,56.1,23.7,29,30.09,10.0,North,3.5,-,N/A,,Clear,350,2013-09-28 12:58:00
6:58 AM,56.1,24.4,29,30.10,10.0,Calm,Calm,-,N/A,,Clear,0,2013-09-28 13:58:00
7:58 AM,59.5,25.3,27,30.12,10.0,Variable,2.3,-,N/A,,Clear,0,2013-09-28 14:58:00
8:58 AM,64.4,26.1,23,30.13,10.0,NW,5.8,-,N/A,,Clear,320,2013-09-28 15:58:00
9:58 AM,70.3,25.7,19,30.12,10.0,NE,10.4,-,N/A,,Clear,50,2013-09-28 16:58:00
10:58 AM,73.0,26.2,18,30.11,10.0,NE,11.5,-,N/A,,Clear,50,2013-09-28 17:58:00
11:58 AM,75.2,26.4,16,30.10,10.0,ENE,12.7,-,N/A,,Clear,60,2013-09-28 18:58:00
12:58 PM,76.5,25.3,15,30.07,10.0,ENE,8.1,-,N/A,,Clear,60,2013-09-28 19:58:00
1:58 PM,77.7,23.5,13,30.05,10.0,ENE,1.2,-,N/A,,Clear,60,2013-09-28 20:58:00
2:58 PM,78.3,24.1,13,30.03,10.0,East,5.8,-,N/A,,Clear,100,2013-09-28 21:58:00
3:58 PM,79.5,21.0,11,30.02,10.0,ENE,4.6,-,N/A,,Clear,60,2013-09-28 22:58:00
4:58 PM,80.6,21.9,11,30.00,10.0,ENE,4.6,-,N/A,,Clear,60,2013-09-28 23:58:00
5:58 PM,79.3,21.0,11,30.00,10.0,Calm,Calm,-,N/A,,Clear,0,2013-09-29 00:58:00
6:58 PM,76.6,24.1,14,30.01,10.0,SSW,4.6,-,N/A,,Clear,200,2013-09-29 01:58:00
7:58 PM,71.2,22.1,16,30.01,10.0,NE,5.8,-,N/A,,Clear,50,2013-09-29 02:58:00
8:58 PM,68.0,19.0,15,30.04,10.0,NE,8.1,-,N/A,,Clear,50,2013-09-29 03:58:00
9:58 PM,65.8,18.9,17,30.04,10.0,NE,6.9,-,N/A,,Clear,50,2013-09-29 04:58:00
10:58 PM,66.0,20.3,17,30.05,10.0,Calm,Calm,-,N/A,,Clear,0,2013-09-29 05:58:00
11:58 PM,60.4,19.2,20,30.05,10.0,NE,3.5,-,N/A,,Clear,40,2013-09-29 06:58:00